Flight Information

DEPARTURE
SAN DIEGO, CA
Elevation:
526
Runways:
8R/26L - 3185x75 - ASPH-G
8L/26R - 7972x150 - ASPH-CONC-G
Active PE Departure:
26L - 26R
Current PE ATIS:
V
Altimeter:
29.96
Remarks:
ATIS:
132.35 619-661-0152
Clearance Delivery:
124.4
Ground:
124.4
Tower:
128.25
DESTINATION
,
Elevation:
TPA:
1000 (est.)


6748.4 NM75° True-13° Var61° HDG

Flight Plan:
(click to file on line)

1. Type
2. Aircraft Identification
3. Aircraft Type / Special Equipment
4. True Airspeed
kts
5. Departure Airport
(ICAO code)
6. Arriving Airport
(ICAO code)
7. Cruising Altitude
ft
8. Alternate Airport
(ICAO code)
9. Route of Flight
10. Remarks


00:00:00 Departure ATIS: Destination ATIS:

Clearance Limit:
Route:
Altitude: Expect in minutes
Frequency:
Transponder: (7500 Hijack / 7600 Lost Comms / 7700 Emergency)


KSDM 051553Z 00000KT 10SM CLR 25/16 A2995 RMK AO2 SLP136 T02500156
Time: 2020-07-05T15:53:00Z
1593964586
Winds: calm
Visibility: 10.0 sm
Clouds (AGL): CLR
Temperature: 25.0 C
Dew Point: 15.6 C
Pressure: 29.949802 in Hgbr


Notes:

Data extracted from FAA Digital Chart Supplement. Effective: 0901Z Thursday, May 21, 2020 to 0901Z Thursday, Jul 16, 2020
Current ATIS data is provided courtisy of PilotEdge.